Location: Gull Harbor
(47.1000°N, 122.9000°W)
Time: 10:06:05
(UTC-07:00)

Envisat - Visible Passes

Search period start: 24 September 2018 00:00
Search period end: 04 October 2018 00:00
Orbit: 764 x 766 km, 98.2° (Epoch: 23 September)

Date Brightness Start Highest point End Pass type
(mag) Time Alt. Az. Time Alt. Az. Time Alt. Az.
24 Sep 4.2 20:42:11 10° S 20:47:01 44° W 20:51:53 10° NNW visible
25 Sep 3.0 20:05:06 10° SSE 20:10:12 90° N 20:15:19 10° NNW visible
25 Sep 5.9 21:47:47 10° WSW 21:49:56 13° W 21:52:05 10° WNW visible
26 Sep 3.4 19:28:45 10° SE 19:33:34 44° ENE 19:38:23 10° N visible
26 Sep 5.1 21:08:32 10° SSW 21:12:46 26° W 21:17:01 10° NW visible
27 Sep 3.7 20:30:50 10° S 20:35:48 54° W 20:40:48 10° NNW visible
28 Sep 2.9 19:53:58 10° SSE 19:59:01 74° ENE 20:04:07 10° N visible
28 Sep 5.7 21:35:34 10° SW 21:38:36 16° W 21:41:40 10° NW visible
29 Sep 4.7 20:56:58 10° SSW 21:01:29 32° W 21:06:03 10° NNW visible
30 Sep 3.3 20:19:32 10° S 20:24:35 68° WSW 20:29:40 10° NNW visible
01 Oct 3.0 19:42:53 10° SSE 19:47:52 60° ENE 19:52:53 10° N visible
01 Oct 5.5 21:23:39 10° SW 21:27:18 20° W 21:30:58 10° NW visible
02 Oct 4.3 20:45:29 10° SSW 20:50:14 40° W 20:55:02 10° NNW visible
03 Oct 3.0 20:08:18 10° SSE 20:13:23 83° WSW 20:18:31 10° NNW visible
03 Oct 6.0 21:51:36 10° WSW 21:53:12 11° W 21:54:49 10° WNW visible
